Погода в Маоне

Испания     39°53′13″N   4°15′35″E
темп.,
°C
ветер,
м/с
пор.,
м/с
влажн.,
%
обл.,
%
осадки,
мм/ч
давл.,
гПа
погр.,
м
25 января, пн
пн2501:00+13юз7126773 0.0 1011469
04:00+12зюз51080100 0.0 1010446
07:00+12з51274100 0.0 1009577
10:00+14зюз61164100 0.0 1010693
13:00+16зюз71161100 0.0 1009670
16:00+14з51286100 1.2 1007962
19:00+12ссв81092100 5.2 1008514
22:00+11ссв101374100 1.3 10121049
26 января, вт
вт2601:00+11с12165696 1.3 10141214
04:00+11с12165285 0.0 10161226
07:00+10с12155285 0.0 10201373
10:00+11с9115180 0.0 10221163
13:00+11ссз785163 0.0 10231319
16:00+11ссз455452 0.0 1022923
19:00+10з236164 0.0 1022388
22:00+9зюз587824 0.0 1023341
27 января, ср
ср2701:00+10зюз588312 0.0 1022263
04:00+10зюз33860 0.0 1021114
07:00+10з22831 0.0 102181
10:00+12з11752 0.0 102286
13:00+15зюз45671 0.0 1023399
16:00+15з45742 0.0 1021326
19:00+12зсз348729 0.0 1022159
22:00+11зсз34860 0.0 1023164
28 января, чт
чт2801:00+11сз33872 0.0 1023135
04:00+11зюз33810 0.0 102253
07:00+12юз46820 0.0 1022110
10:00+15юз69770 0.0 1023324
13:00+17з711694 0.0 1023468
16:00+16зсз58753 0.0 1022380
19:00+13з228652 0.0 102329
22:00+13зюз1287100 0.0 102325
29 января, пт
пт2901:00+13ююз1286100 0.0 102223
04:00+13ююз2386100 0.0 102126
07:00+13ююз348389 0.0 102044
10:00+15юз6983100 0.0 1020203
13:00+18юз687381 0.0 1018212
16:00+18юз7117263 0.0 1015294
19:00+15зюз6108480 0.0 1014158
22:00+15юз71176100 0.0 1013168